TimeHST,TemperatureF,Dew PointF,Humidity,Sea Level PressureIn,VisibilityMPH,Wind Direction,Wind SpeedMPH,Gust SpeedMPH,PrecipitationIn,Events,Conditions,WindDirDegrees,DateUTC
12:07 AM,75.2,69.8,83,29.94,6.2,Variable,6.9,-,N/A,,Scattered Clouds,0,2013-11-09 10:07:00
12:57 AM,75.2,69.1,81,29.91,8.0,Variable,3.5,-,N/A,,Partly Cloudy,0,2013-11-09 10:57:00
1:30 AM,75.2,68.0,78,29.93,6.2,East,4.6,-,N/A,,Mostly Cloudy,80,2013-11-09 11:30:00
1:57 AM,75.2,68.0,78,29.90,8.0,ENE,6.9,-,N/A,,Mostly Cloudy,70,2013-11-09 11:57:00
2:57 AM,73.4,66.9,80,29.89,8.0,East,3.5,-,N/A,,Scattered Clouds,100,2013-11-09 12:57:00
3:57 AM,75.2,68.0,78,29.88,6.0,East,6.9,-,N/A,,Haze,80,2013-11-09 13:57:00
4:57 AM,-9999,-9999,N/A,29.89,6.0,ENE,4.6,-,N/A,,Haze,70,2013-11-09 14:57:00
5:57 AM,75.2,68.0,78,29.90,7.0,East,3.5,-,N/A,,Overcast,80,2013-11-09 15:57:00
6:46 AM,75.2,68.0,78,29.92,6.0,NE,10.4,-,N/A,,Haze,50,2013-11-09 16:46:00
6:57 AM,75.2,68.0,78,29.91,7.0,NE,12.7,20.7,N/A,,Mostly Cloudy,50,2013-11-09 16:57:00
7:06 AM,75.2,68.0,78,29.93,6.2,ENE,9.2,17.3,N/A,Rain,Light Rain,70,2013-11-09 17:06:00
7:22 AM,75.2,68.0,78,29.94,6.2,NE,6.9,-,N/A,Rain,Light Rain,40,2013-11-09 17:22:00
7:57 AM,75.2,68.0,78,29.93,7.0,NE,13.8,19.6,N/A,,Overcast,50,2013-11-09 17:57:00
8:57 AM,77.0,68.0,74,29.94,7.0,ENE,5.8,-,N/A,,Overcast,60,2013-11-09 18:57:00
9:57 AM,78.8,70.0,74,29.94,7.0,NNE,9.2,-,N/A,,Overcast,30,2013-11-09 19:57:00
10:38 AM,80.6,69.8,70,29.94,6.2,ENE,8.1,-,N/A,,Overcast,70,2013-11-09 20:38:00
10:57 AM,80.6,70.0,70,29.91,7.0,NE,10.4,16.1,N/A,,Overcast,40,2013-11-09 20:57:00
11:04 AM,82.4,71.6,70,29.93,-9999.0,NE,11.5,-,N/A,Rain,Light Rain,40,2013-11-09 21:04:00
11:17 AM,82.4,71.6,70,29.92,-9999.0,NE,10.4,-,N/A,Rain,Light Rain,50,2013-11-09 21:17:00
11:34 AM,82.4,71.6,70,29.91,6.2,ENE,10.4,19.6,N/A,,Overcast,70,2013-11-09 21:34:00
11:57 AM,82.4,71.1,68,29.89,8.0,ENE,10.4,16.1,N/A,,Overcast,70,2013-11-09 21:57:00
12:57 PM,82.4,69.1,64,29.87,1.8,East,10.4,17.3,N/A,Rain,Light Rain,90,2013-11-09 22:57:00
1:24 PM,82.4,66.2,58,29.87,0.8,Variable,3.5,-,N/A,Rain,Rain,0,2013-11-09 23:24:00
1:33 PM,82.4,66.2,58,29.87,-9999.0,SE,5.8,-,N/A,Rain,Rain,140,2013-11-09 23:33:00
1:57 PM,82.4,66.0,57,29.84,5.0,East,3.5,-,N/A,Rain,Light Rain,80,2013-11-09 23:57:00
2:07 PM,-9999,-9999,N/A,29.85,-9999.0,North,4.6,-,N/A,Rain,Light Rain,360,2013-11-10 00:07:00
2:15 PM,82.4,69.8,66,29.86,5.0,NE,11.5,19.6,N/A,Rain,Light Rain,40,2013-11-10 00:15:00
2:26 PM,82.4,69.8,66,29.85,5.0,Calm,Calm,-,N/A,Rain,Light Rain,0,2013-11-10 00:26:00
2:57 PM,82.4,70.0,66,29.84,5.0,NE,12.7,19.6,N/A,Rain,Light Rain,40,2013-11-10 00:57:00
3:04 PM,-9999,-9999,N/A,29.86,1.8,NE,11.5,-,N/A,Rain,Light Rain,40,2013-11-10 01:04:00
3:27 PM,-9999,-9999,N/A,29.86,-9999.0,East,9.2,20.7,N/A,Rain,Light Rain,80,2013-11-10 01:27:00
3:34 PM,-9999,-9999,N/A,29.86,-9999.0,Variable,5.8,-,N/A,Rain,Light Rain,0,2013-11-10 01:34:00
3:48 PM,-9999,-9999,N/A,29.86,1.0,ENE,4.6,-,N/A,Rain,Light Rain,60,2013-11-10 01:48:00
3:55 PM,80.6,73.4,79,29.86,1.2,ENE,4.6,-,N/A,Rain,Light Rain,60,2013-11-10 01:55:00
3:57 PM,80.6,73.0,78,29.85,5.0,NE,9.2,-,N/A,Rain,Light Rain,50,2013-11-10 01:57:00
4:31 PM,80.6,73.4,79,29.86,5.0,ENE,12.7,19.6,N/A,Rain,Light Rain,60,2013-11-10 02:31:00
4:57 PM,80.6,73.0,78,29.86,5.0,ESE,6.9,-,N/A,Rain,Light Rain,120,2013-11-10 02:57:00
4:59 PM,-9999,-9999,N/A,29.87,5.0,ESE,5.8,-,N/A,Rain,Light Rain,120,2013-11-10 02:59:00
5:13 PM,80.6,71.6,74,29.88,5.0,ENE,6.9,-,N/A,Rain,Rain,70,2013-11-10 03:13:00
5:31 PM,80.6,71.6,74,29.88,5.0,East,3.5,-,N/A,Rain,Light Rain,80,2013-11-10 03:31:00
5:57 PM,80.6,71.1,73,29.87,5.0,East,11.5,17.3,N/A,Rain,Light Rain,80,2013-11-10 03:57:00
6:57 PM,80.6,71.1,73,29.87,6.0,East,9.2,-,N/A,Rain,Light Rain,90,2013-11-10 04:57:00
7:57 PM,78.8,72.0,79,29.89,5.0,East,4.6,-,N/A,Rain,Light Rain,90,2013-11-10 05:57:00
8:57 PM,77.0,73.0,88,29.90,7.0,East,4.6,-,N/A,,Mostly Cloudy,80,2013-11-10 06:57:00
9:46 PM,77.0,71.6,83,29.92,5.0,NE,19.6,29.9,N/A,Rain,Light Rain,40,2013-11-10 07:46:00
9:53 PM,77.0,71.6,83,29.92,4.0,NE,19.6,29.9,N/A,Rain,Light Rain,40,2013-11-10 07:53:00
9:57 PM,77.0,71.1,82,29.90,3.0,NE,18.4,28.8,N/A,Rain,Light Rain,40,2013-11-10 07:57:00
10:03 PM,77.0,69.8,78,29.92,2.5,NE,18.4,28.8,N/A,Rain,Light Rain,40,2013-11-10 08:03:00
10:16 PM,77.0,69.8,78,29.92,-9999.0,NNE,17.3,29.9,N/A,Rain,Light Rain,30,2013-11-10 08:16:00
10:25 PM,77.0,69.8,78,29.92,2.5,NE,17.3,25.3,N/A,Rain,Light Rain,40,2013-11-10 08:25:00
10:34 PM,77.0,69.8,78,29.92,1.5,NE,19.6,29.9,N/A,Rain,Light Rain,40,2013-11-10 08:34:00
10:36 PM,77.0,69.8,78,29.92,0.8,NE,20.7,29.9,N/A,Rain,Heavy Rain,40,2013-11-10 08:36:00
10:44 PM,77.0,69.8,78,29.92,-9999.0,NNE,17.3,26.5,N/A,Rain,Heavy Rain,30,2013-11-10 08:44:00
10:57 PM,77.0,69.1,76,29.91,3.0,NE,18.4,27.6,N/A,Rain,Heavy Rain,40,2013-11-10 08:57:00
11:04 PM,77.0,69.8,78,29.93,0.8,NE,16.1,27.6,N/A,Rain,Heavy Rain,40,2013-11-10 09:04:00
11:26 PM,77.0,69.8,78,29.93,1.0,NE,15.0,20.7,N/A,Rain,Rain,50,2013-11-10 09:26:00
11:57 PM,77.0,69.1,76,29.91,1.5,NE,12.7,19.6,N/A,Rain,Rain,40,2013-11-10 09:57:00